Location: Chuathbaluk
(61.5726°N, 159.2454°W)
Time: 14:16:48
(UTC+00:00)

DELFI C3 - Pass Details

Date: 18 January 2021
Orbit: 531 x 550 km, 97.4° (Epoch: 04 March)

Event Time Altitude Azimuth Distance (km) Brightness Sun altitude
Exits shadow 04:51:58 29° 28° (NNE) 1,028 ? -18.5°
Drops below altitude 10° 04:54:33 10° 355° (N) 1,842 ? -18.8°
Sets 04:56:49 0° 346° (NNW) 2,742 ? -19.0°
